User: anonymous   Login
Location: Unspecified
(17.6330°N, 0.0000°E)
Time: 02:33:20
(UTC+00:00)
Language:

Vanguard 1 Rocket - Orbit

View from above orbital plane
View from above orbital plane
View from above satellite
View from above satellite

Ground track
Ground track

The orbit data is extracted from the following two-line orbital elements,

1    16U 58002A   19166.29432417 -.00000019 +00000-0 -10354-4 0  9996
2    16 034.2593 137.6997 2026056 125.4313 255.2663 10.48746831420183
Epoch (UTC): 15 June 2019 07:03:49
Eccentricity: 0.2026056
inclination: 34.2593°
perigee height: 652 km
apogee height: 4224 km
right ascension of ascending node: 137.6997°
argument of perigee: 125.4313°
revolutions per day: 10.48746831
mean anomaly at epoch: 255.2663°
orbit number at epoch: 42018

The dashed part of the orbit path shows where the satellite is in the earth's shadow,  

DLR